| time (UTC) | temp F | wind direction | speed MPH | gust MPH | rain 1hr in | rain 24hr in | rain mn in | humidity % | barometer mb |
| 20260505003029 | 67 | 108 | 1.0 | 6.0 | 0.00 | 0.00 | 0.00 | 45 | 1015.2 |
| 20260505001529 | 68 | 0 | 0.0 | 3.0 | 0.00 | 0.00 | 0.00 | 43 | 1015.2 |
| 20260505000032 | 68 | 0 | 1.0 | 5.0 | 0.00 | 0.00 | 0.00 | 42 | 1015.2 |
| 20260504234528 | 69 | 0 | 0.0 | 3.0 | 0.00 | 0.00 | 0.00 | 42 | 1015.1 |
| 20260504233028 | 69 | 0 | 1.0 | 4.0 | 0.00 | 0.00 | 0.00 | 41 | 1015.0 |
| 20260504231527 | 69 | 319 | 0.0 | 4.0 | 0.00 | 0.00 | 0.00 | 40 | 1015.1 |
| 20260504230027 | 70 | 93 | 1.0 | 9.0 | 0.00 | 0.00 | 0.00 | 39 | 1015.1 |
| 20260504224535 | 71 | 0 | 0.0 | 7.0 | 0.00 | 0.00 | 0.00 | 40 | 1014.9 |
| 20260504223030 | 71 | 72 | 1.0 | 7.0 | 0.00 | 0.00 | 0.00 | 38 | 1015.1 |
| 20260504221530 | 72 | 0 | 2.0 | 10.0 | 0.00 | 0.00 | 0.00 | 37 | 1015.2 |
| 20260504220030 | 72 | 159 | 3.0 | 13.0 | 0.00 | 0.00 | 0.00 | 37 | 1015.1 |
| 20260504214528 | 73 | 53 | 4.0 | 14.0 | 0.00 | 0.00 | 0.00 | 36 | 1015.1 |
| 20260504213028 | 73 | 355 | 3.0 | 12.0 | 0.00 | 0.00 | 0.00 | 36 | 1015.1 |
| 20260504211528 | 73 | 81 | 3.0 | 9.0 | 0.00 | 0.00 | 0.00 | 36 | 1015.0 |
| 20260504210037 | 74 | 72 | 2.0 | 12.0 | 0.00 | 0.00 | 0.00 | 36 | 1015.2 |
| 20260504204537 | 74 | 92 | 2.0 | 11.0 | 0.00 | 0.00 | 0.00 | 34 | 1015.2 |
| 20260504203031 | 74 | 355 | 3.0 | 10.0 | 0.00 | 0.00 | 0.00 | 35 | 1015.4 |
| 20260504201529 | 74 | 93 | 4.0 | 10.0 | 0.00 | 0.00 | 0.00 | 33 | 1015.5 |
| 20260504200030 | 75 | 86 | 3.0 | 11.0 | 0.00 | 0.00 | 0.00 | 33 | 1015.7 |
| 20260504194530 | 75 | 352 | 1.0 | 8.0 | 0.00 | 0.00 | 0.00 | 35 | 1015.7 |
| 20260504193028 | 75 | 148 | 3.0 | 8.0 | 0.00 | 0.00 | 0.00 | 33 | 1016.0 |
| 20260504191528 | 75 | 88 | 2.0 | 7.0 | 0.00 | 0.00 | 0.00 | 34 | 1016.1 |
| 20260504190027 | 74 | 112 | 1.0 | 12.0 | 0.00 | 0.00 | 0.00 | 33 | 1016.3 |
| 20260504184528 | 74 | 71 | 4.0 | 11.0 | 0.00 | 0.00 | 0.00 | 33 | 1016.5 |
| 20260504183027 | 74 | 95 | 3.0 | 9.0 | 0.00 | 0.00 | 0.00 | 33 | 1016.7 |
| 20260504181530 | 73 | 65 | 2.0 | 9.0 | 0.00 | 0.00 | 0.00 | 34 | 1016.9 |
| 20260504180030 | 73 | 133 | 3.0 | 9.0 | 0.00 | 0.00 | 0.00 | 32 | 1017.1 |
| 20260504174527 | 72 | 95 | 2.0 | 7.0 | 0.00 | 0.00 | 0.00 | 33 | 1017.0 |
| 20260504173030 | 72 | 136 | 4.0 | 8.0 | 0.00 | 0.00 | 0.00 | 33 | 1017.2 |
| 20260504171528 | 71 | 82 | 1.0 | 8.0 | 0.00 | 0.00 | 0.00 | 36 | 1017.4 |
| 20260504081531 | 46 | 0 | 0.0 | 0.0 | 0.00 | 0.00 | 0.00 | 75 | 1017.7 |
| 20260504044528 | 55 | 0 | 0.0 | 6.0 | 0.00 | 0.00 | 0.00 | 60 | 1018.0 |
| 20260504043030 | 55 | 0 | 0.0 | 4.0 | 0.00 | 0.00 | 0.00 | 59 | 1018.0 |
| 20260504041540 | 55 | 92 | 1.0 | 4.0 | 0.00 | 0.00 | 0.00 | 59 | 1017.7 |
| 20260504040032 | 55 | 93 | 2.0 | 6.0 | 0.00 | 0.00 | 0.00 | 58 | 1017.9 |
| 20260504034528 | 56 | 0 | 2.0 | 6.0 | 0.00 | 0.00 | 0.00 | 58 | 1018.1 |
| 20260504033028 | 56 | 96 | 1.0 | 4.0 | 0.00 | 0.00 | 0.00 | 58 | 1018.1 |
| 20260504031528 | 56 | 104 | 0.0 | 6.0 | 0.00 | 0.00 | 0.00 | 57 | 1018.1 |
| 20260504030032 | 57 | 115 | 1.0 | 4.0 | 0.00 | 0.00 | 0.00 | 56 | 1018.2 |
| 20260504024530 | 57 | 133 | 2.0 | 7.0 | 0.00 | 0.00 | 0.00 | 55 | 1018.2 |
| 20260504023030 | 57 | 0 | 1.0 | 6.0 | 0.00 | 0.00 | 0.00 | 55 | 1018.1 |
| 20260504021530 | 57 | 126 | 1.0 | 7.0 | 0.00 | 0.00 | 0.00 | 55 | 1017.9 |
| 20260504020036 | 57 | 109 | 1.0 | 4.0 | 0.00 | 0.00 | 0.00 | 54 | 1017.7 |
| 20260504014531 | 58 | 110 | 1.0 | 6.0 | 0.00 | 0.00 | 0.00 | 53 | 1017.5 |
| 20260504013032 | 58 | 92 | 1.0 | 5.0 | 0.00 | 0.00 | 0.00 | 52 | 1017.3 |
| 20260504011529 | 58 | 98 | 0.0 | 6.0 | 0.00 | 0.00 | 0.00 | 52 | 1017.2 |
| 20260504010027 | 59 | 0 | 0.0 | 6.0 | 0.00 | 0.00 | 0.00 | 52 | 1017.0 |
| 20260504004527 | 59 | 88 | 2.0 | 7.0 | 0.00 | 0.00 | 0.00 | 50 | 1016.8 |